{"data":{"norad_id":52875,"intl_designator":"2022-062AX","name":"STARLINK-4193","alt_names":[],"object_type":"PAYLOAD","status":"ACTIVE","operator":null,"country":"US","launch_date":"2022-06-17","launch_site_code":"AFETR","launch_vehicle":null,"mission":null,"orbit_class":"UNKNOWN","rcs_meters":null,"size_class":null,"mass_kg":null,"dimensions":null,"purposes":["comms"],"wikipedia_slug":null,"has_3d_model":false,"image_url":null,"decayed_at":null,"tle_current":{"epoch":"2026-05-25T03:02:31.130016Z","epoch_age_seconds":63754,"freshness":"FRESH","line1":"1 52875U 22062AX  26145.12674919  .00000380  00000+0  41990-4 0  9993","line2":"2 52875  53.2130  30.9795 0001644  86.1665 273.9515 15.08838665217601","mean_motion":15.08838665,"eccentricity":0.0001644,"inclination_deg":53.213,"raan_deg":30.9795,"arg_perigee_deg":86.1665,"mean_anomaly_deg":273.9515,"bstar":4.199e-5,"rev_number":21760,"period_min":95.437639119621,"perigee_km":538.61016932125,"apogee_km":540.88476973483,"semimajor_km":6917.884469528,"source":"CELESTRAK","updated_at":"2026-05-25T13:38:17.269880Z"}}}